Southampton, United Kingdom

3:26 PM BST on April 25, 2018 (GMT +0100)
Southampton International

Weather History for EGHI - October, 2013

Change the Weather History Date:

Monday, October 21, 2013

  Actual Average Record
Temperature  
Mean Temperature 48 °F -  
Max Temperature 64 °F 52 °F 64 °F (1998)
Min Temperature 33 °F 40 °F 23 °F (2010)
Degree Days  
Heating Degree Days 16    
Moisture  
Dew Point 55 °F    
Average Humidity 82    
Maximum Humidity 94    
Minimum Humidity 72    
Precipitation  
Precipitation 0.00 in - - ()
Sea Level Pressure  
Sea Level Pressure 29.67 in    
Wind  
Wind Speed 13 mph ()    
Max Wind Speed 23 mph    
Max Gust Speed 40 mph    
Visibility 5.8 miles    
Events Rain    
Averages and records for this station are not official NWS values.
T = Trace of Precipitation, MM = Missing Value Source: Averaged Metar Reports

Daily Weather History Graph

Daily Weather History Graph

Search for Another Location

Airport or City:

Astronomy

Oct. 21, 2013 Rise Set
Actual Time 7:38 AM BST 6:00 PM BST
Civil Twilight 7:05 AM BST 6:34 PM BST
Nautical Twilight 6:26 AM BST 7:12 PM BST
Astronomical Twilight 5:48 AM BST 7:50 PM BST
Moon 7:26 PM BST (10/21) 10:14 AM BST (10/21)
Length of Visible Light 11h 29m
Length of Day
10h 21m
Waning Gibbous, 94% of the Moon is Illuminated
Oct 21
Waning Gibbous
Oct 27
Last Quarter
Nov 3
New
Nov 10
First Quarter
Nov 17
Full

Hourly Weather History & Observations

Time (BST) Temp. Windchill Dew Point Humidity Pressure Visibility Wind Dir Wind Speed Gust Speed Precip Events Conditions
5:50 AM 57.2 °F - 55.4 °F 94% 29.71 in 5.6 mi SSW 9.2 mph - N/A   Scattered Clouds
6:20 AM 57.2 °F - 55.4 °F 94% 29.71 in 5.6 mi South 9.2 mph - N/A   Scattered Clouds
6:50 AM 57.2 °F - 55.4 °F 94% 29.71 in 5.6 mi South 9.2 mph - N/A Rain Light Rain
7:20 AM 59.0 °F - 55.4 °F 88% 29.71 in 5.6 mi South 11.5 mph - N/A   Mostly Cloudy
7:50 AM 59.0 °F - 55.4 °F 88% 29.71 in 5.0 mi South 12.7 mph 25.3 mph N/A Rain Light Rain
8:20 AM 33.8 °F 25.8 °F 28.4 °F 81% 29.71 in 5.0 mi South 10.4 mph - N/A Rain Light Rain
8:50 AM 60.8 °F - 57.2 °F 88% 29.71 in 5.6 mi South 8.1 mph 21.9 mph N/A Rain Light Rain
9:20 AM 60.8 °F - 57.2 °F 88% 29.68 in 4.3 mi South 15.0 mph 35.7 mph N/A Rain Rain
9:50 AM 60.8 °F - 59.0 °F 94% 29.68 in 3.7 mi South 15.0 mph 32.2 mph N/A Rain Rain
10:20 AM 60.8 °F - 59.0 °F 94% 29.68 in 3.7 mi South 23.0 mph 40.3 mph N/A Rain Light Rain
10:50 AM 60.8 °F - 59.0 °F 94% 29.68 in 3.7 mi SSW 23.0 mph 36.8 mph N/A Rain Light Rain
11:20 AM 60.8 °F - 59.0 °F 94% 29.68 in 6.2 mi South 21.9 mph 33.4 mph N/A   Mostly Cloudy
11:50 AM 60.8 °F - 59.0 °F 94% 29.68 in 6.2 mi South 23.0 mph 35.7 mph N/A   Scattered Clouds
12:20 PM 62.6 °F - 55.4 °F 77% 29.68 in 6.2 mi South 20.7 mph 35.7 mph N/A   Scattered Clouds
12:50 PM 62.6 °F - 55.4 °F 77% 29.68 in 6.2 mi South 19.6 mph 31.1 mph N/A   Scattered Clouds
1:20 PM 62.6 °F - 55.4 °F 77% 29.68 in 6.2 mi SSW 20.7 mph - N/A   Scattered Clouds
1:50 PM 62.6 °F - 55.4 °F 77% 29.68 in 6.2 mi South 20.7 mph 33.4 mph N/A   Scattered Clouds
2:20 PM 62.6 °F - 55.4 °F 77% 29.68 in 6.2 mi South 20.7 mph 32.2 mph N/A   Scattered Clouds
2:50 PM 62.6 °F - 57.2 °F 82% 29.68 in 6.2 mi South 23.0 mph 34.5 mph N/A   Scattered Clouds
3:20 PM 64.4 °F - 57.2 °F 77% 29.68 in 6.2 mi SSW 17.3 mph - N/A   Scattered Clouds
3:50 PM 64.4 °F - 57.2 °F 77% 29.65 in 6.2 mi South 16.1 mph - N/A   Scattered Clouds
4:20 PM 62.6 °F - 55.4 °F 77% 29.65 in 6.2 mi South 16.1 mph 27.6 mph N/A   Mostly Cloudy
4:50 PM 62.6 °F - 55.4 °F 77% 29.65 in 6.2 mi South 17.3 mph 32.2 mph N/A   Mostly Cloudy
5:20 PM 62.6 °F - 55.4 °F 77% 29.65 in 6.2 mi South 12.7 mph - N/A   Mostly Cloudy
5:50 PM 62.6 °F - 55.4 °F 77% 29.65 in 6.2 mi South 16.1 mph - N/A   Mostly Cloudy
6:20 PM 62.6 °F - 55.4 °F 77% 29.65 in 6.2 mi South 15.0 mph 26.5 mph N/A   Mostly Cloudy
6:50 PM 62.6 °F - 55.4 °F 77% 29.65 in 6.2 mi South 13.8 mph - N/A   Mostly Cloudy
7:20 PM 62.6 °F - 53.6 °F 72% 29.65 in 6.2 mi South 13.8 mph - N/A   Mostly Cloudy
7:50 PM 62.6 °F - 55.4 °F 77% 29.65 in 6.2 mi South 18.4 mph 33.4 mph N/A Rain Light Rain Showers
8:20 PM 60.8 °F - 53.6 °F 77% 29.62 in 6.2 mi South 12.7 mph - N/A Rain Light Rain Showers
8:50 PM 62.6 °F - 53.6 °F 72% 29.62 in 6.2 mi South 6.9 mph - N/A Rain Light Rain Showers
9:20 PM 62.6 °F - 53.6 °F 72% 29.62 in 6.2 mi South 11.5 mph 27.6 mph N/A   Mostly Cloudy
9:50 PM 62.6 °F - 53.6 °F 72% 29.62 in 6.2 mi South 17.3 mph 28.8 mph N/A   Mostly Cloudy
10:20 PM 62.6 °F - 55.4 °F 77% 29.62 in 6.2 mi South 12.7 mph - N/A   Mostly Cloudy